| time (UTC) | temp C | wind direction | speed KPH | gust KPH | rain 1hr cm | rain 24hr cm | rain mn cm | humidity % | barometer mb |
| 20260903011919 | 28 | 282 | 0.0 | 0.0 | 0.00 | 0.00 | 0.00 | 62 | 1013.1 |
| 20260903011414 | 28 | 285 | 0.0 | 0.0 | 0.00 | 0.00 | 0.00 | 61 | 1013.2 |
| 20260903010909 | 28 | 264 | 0.0 | 0.0 | 0.00 | 0.00 | 0.00 | 59 | 1013.1 |
| 20260903010404 | 28 | 256 | 0.0 | 0.0 | 0.00 | 0.00 | 0.00 | 59 | 1013.1 |
| 20260903005902 | 29 | 230 | 0.0 | 0.0 | 0.00 | 0.00 | 0.00 | 59 | 1013.2 |
| 20260903005357 | 30 | 222 | 0.0 | 0.0 | 0.00 | 0.00 | 0.00 | 57 | 1013.2 |
| 20260903004854 | 30 | 218 | 0.0 | 0.0 | 0.00 | 0.00 | 0.00 | 54 | 1013.1 |
| 20260903004349 | 31 | 197 | 1.6 | 1.6 | 0.00 | 0.00 | 0.00 | 52 | 1013.0 |
| 20260903003844 | 31 | 222 | 0.0 | 0.0 | 0.00 | 0.00 | 0.00 | 50 | 1013.0 |
| 20260903003344 | 32 | 235 | 0.0 | 1.6 | 0.00 | 0.00 | 0.00 | 47 | 1013.1 |
| 20260903002844 | 32 | 291 | 1.6 | 1.6 | 0.00 | 0.00 | 0.00 | 44 | 1013.0 |
| 20260903002339 | 33 | 243 | 0.0 | 0.0 | 0.00 | 0.00 | 0.00 | 43 | 1013.1 |
| 20260903001834 | 33 | 281 | 0.0 | 0.0 | 0.00 | 0.00 | 0.00 | 42 | 1012.8 |
| 20260903001329 | 34 | 237 | 0.0 | 0.0 | 0.00 | 0.00 | 0.00 | 42 | 1013.0 |
| 20260903000829 | 34 | 198 | 4.8 | 6.4 | 0.00 | 0.00 | 0.00 | 40 | 1013.0 |
| 20260903000325 | 35 | 245 | 1.6 | 1.6 | 0.00 | 0.00 | 0.00 | 39 | 1013.0 |
| 20260902235821 | 35 | 166 | 0.0 | 1.6 | 0.00 | 0.00 | 0.00 | 39 | 1012.8 |
| 20260902235317 | 35 | 259 | 1.6 | 1.6 | 0.00 | 0.00 | 0.00 | 38 | 1012.8 |
| 20260902234811 | 35 | 95 | 3.2 | 8.0 | 0.00 | 0.00 | 0.00 | 37 | 1012.8 |
| 20260902234311 | 35 | 225 | 1.6 | 4.8 | 0.00 | 0.00 | 0.00 | 38 | 1013.0 |
| 20260902233810 | 35 | 226 | 3.2 | 6.4 | 0.00 | 0.00 | 0.00 | 37 | 1013.0 |
| 20260902233310 | 36 | 213 | 4.8 | 6.4 | 0.00 | 0.00 | 0.00 | 36 | 1013.0 |
| 20260902232809 | 36 | 194 | 3.2 | 4.8 | 0.00 | 0.00 | 0.00 | 36 | 1013.0 |
| 20260902232309 | 36 | 90 | 6.4 | 8.0 | 0.00 | 0.00 | 0.00 | 36 | 1013.2 |
| 20260902231808 | 36 | 226 | 3.2 | 4.8 | 0.00 | 0.00 | 0.00 | 37 | 1013.1 |
| 20260902231303 | 37 | 207 | 3.2 | 4.8 | 0.00 | 0.00 | 0.00 | 36 | 1013.2 |
| 20260902230759 | 36 | 245 | 3.2 | 4.8 | 0.00 | 0.00 | 0.00 | 34 | 1013.1 |
| 20260902230257 | 36 | 216 | 3.2 | 4.8 | 0.00 | 0.00 | 0.00 | 35 | 1013.2 |
| 20260902225752 | 36 | 243 | 1.6 | 1.6 | 0.00 | 0.00 | 0.00 | 36 | 1013.1 |
| 20260902225247 | 37 | 186 | 4.8 | 8.0 | 0.00 | 0.00 | 0.00 | 34 | 1013.3 |
| 20260902224746 | 37 | 195 | 8.0 | 8.0 | 0.00 | 0.00 | 0.00 | 34 | 1013.2 |
| 20260902224242 | 37 | 186 | 8.0 | 8.0 | 0.00 | 0.00 | 0.00 | 36 | 1013.3 |
| 20260902223738 | 37 | 260 | 1.6 | 1.6 | 0.00 | 0.00 | 0.00 | 33 | 1013.3 |
| 20260902223237 | 37 | 217 | 3.2 | 4.8 | 0.00 | 0.00 | 0.00 | 34 | 1013.4 |
| 20260902222737 | 37 | 253 | 3.2 | 4.8 | 0.00 | 0.00 | 0.00 | 34 | 1013.3 |
| 20260902222236 | 37 | 245 | 3.2 | 6.4 | 0.00 | 0.00 | 0.00 | 33 | 1013.4 |
| 20260902221731 | 36 | 235 | 3.2 | 4.8 | 0.00 | 0.00 | 0.00 | 33 | 1013.5 |
| 20260902221230 | 36 | 168 | 9.7 | 11.3 | 0.00 | 0.00 | 0.00 | 33 | 1013.5 |
| 20260902220726 | 37 | 241 | 8.0 | 8.0 | 0.00 | 0.00 | 0.00 | 32 | 1013.5 |
| 20260902220225 | 38 | 185 | 4.8 | 6.4 | 0.00 | 0.00 | 0.00 | 32 | 1013.5 |
| 20260902215721 | 39 | 237 | 3.2 | 4.8 | 0.00 | 0.00 | 0.00 | 31 | 1013.5 |
| 20260902215216 | 39 | 299 | 3.2 | 4.8 | 0.00 | 0.00 | 0.00 | 31 | 1013.5 |
| 20260902214712 | 39 | 231 | 1.6 | 1.6 | 0.00 | 0.00 | 0.00 | 31 | 1013.6 |
| 20260902214210 | 39 | 268 | 3.2 | 4.8 | 0.00 | 0.00 | 0.00 | 30 | 1013.5 |
| 20260902213706 | 40 | 278 | 3.2 | 4.8 | 0.00 | 0.00 | 0.00 | 31 | 1013.7 |
| 20260902213201 | 39 | 247 | 3.2 | 4.8 | 0.00 | 0.00 | 0.00 | 31 | 1013.7 |
| 20260902212655 | 38 | 263 | 3.2 | 4.8 | 0.00 | 0.00 | 0.00 | 32 | 1013.7 |
| 20260902212152 | 38 | 204 | 8.0 | 11.3 | 0.00 | 0.00 | 0.00 | 32 | 1013.6 |
| 20260902211648 | 37 | 259 | 0.0 | 1.6 | 0.00 | 0.00 | 0.00 | 34 | 1013.9 |
| 20260902211148 | 36 | 188 | 3.2 | 6.4 | 0.00 | 0.00 | 0.00 | 37 | 1013.9 |
| 20260902210648 | 36 | 240 | 3.2 | 4.8 | 0.00 | 0.00 | 0.00 | 36 | 1013.9 |
| 20260902210143 | 36 | 255 | 1.6 | 1.6 | 0.00 | 0.00 | 0.00 | 37 | 1014.1 |
| 20260902205642 | 37 | 221 | 3.2 | 4.8 | 0.00 | 0.00 | 0.00 | 36 | 1014.0 |
| 20260902205137 | 38 | 236 | 1.6 | 1.6 | 0.00 | 0.00 | 0.00 | 35 | 1014.0 |
| 20260902204632 | 38 | 149 | 6.4 | 8.0 | 0.00 | 0.00 | 0.00 | 35 | 1014.1 |
| 20260902204126 | 37 | 269 | 3.2 | 4.8 | 0.00 | 0.00 | 0.00 | 35 | 1014.3 |
| 20260902203622 | 37 | 202 | 3.2 | 6.4 | 0.00 | 0.00 | 0.00 | 37 | 1014.3 |
| 20260902203122 | 38 | 153 | 8.0 | 11.3 | 0.00 | 0.00 | 0.00 | 34 | 1014.4 |
| 20260902202617 | 38 | 179 | 11.3 | 16.1 | 0.00 | 0.00 | 0.00 | 35 | 1014.3 |
| 20260902202114 | 38 | 201 | 3.2 | 4.8 | 0.00 | 0.00 | 0.00 | 33 | 1014.4 |
| 20260902201609 | 38 | 164 | 6.4 | 11.3 | 0.00 | 0.00 | 0.00 | 34 | 1014.3 |
| 20260902201108 | 37 | 258 | 4.8 | 6.4 | 0.00 | 0.00 | 0.00 | 35 | 1014.6 |
| 20260902200604 | 37 | 193 | 8.0 | 12.9 | 0.00 | 0.00 | 0.00 | 37 | 1014.5 |
| 20260902200059 | 37 | 251 | 0.0 | 0.0 | 0.00 | 0.00 | 0.00 | 37 | 1014.7 |
| 20260902195555 | 37 | 229 | 0.0 | 0.0 | 0.00 | 0.00 | 0.00 | 37 | 1014.7 |
| 20260902195054 | 37 | 170 | 6.4 | 8.0 | 0.00 | 0.00 | 0.00 | 37 | 1015.0 |
| 20260902194553 | 37 | 181 | 6.4 | 16.1 | 0.00 | 0.00 | 0.00 | 37 | 1015.2 |
| 20260902194049 | 37 | 163 | 9.7 | 12.9 | 0.00 | 0.00 | 0.00 | 37 | 1014.9 |
| 20260902193545 | 37 | 20 | 4.8 | 6.4 | 0.00 | 0.00 | 0.00 | 36 | 1015.0 |
| 20260902193044 | 37 | 166 | 14.5 | 17.7 | 0.00 | 0.00 | 0.00 | 36 | 1015.1 |
| 20260902192543 | 36 | 260 | 4.8 | 6.4 | 0.00 | 0.00 | 0.00 | 39 | 1015.1 |
| 20260902192042 | 37 | 219 | 6.4 | 8.0 | 0.00 | 0.00 | 0.00 | 36 | 1015.2 |
| 20260902191537 | 37 | 201 | 4.8 | 11.3 | 0.00 | 0.00 | 0.00 | 37 | 1015.4 |
| 20260902191032 | 37 | 226 | 8.0 | 8.0 | 0.00 | 0.00 | 0.00 | 36 | 1015.3 |
| 20260902190528 | 37 | 202 | 8.0 | 11.3 | 0.00 | 0.00 | 0.00 | 38 | 1015.6 |
| 20260902190023 | 36 | 207 | 4.8 | 6.4 | 0.00 | 0.00 | 0.00 | 38 | 1015.6 |
| 20260902185519 | 36 | 208 | 6.4 | 8.0 | 0.00 | 0.00 | 0.00 | 38 | 1015.7 |
| 20260902185014 | 36 | 240 | 3.2 | 6.4 | 0.00 | 0.00 | 0.00 | 38 | 1015.6 |
| 20260902184509 | 37 | 183 | 9.7 | 12.9 | 0.00 | 0.00 | 0.00 | 36 | 1015.8 |
| 20260902184004 | 37 | 244 | 6.4 | 8.0 | 0.00 | 0.00 | 0.00 | 37 | 1016.1 |
| 20260902183501 | 36 | 142 | 6.4 | 8.0 | 0.00 | 0.00 | 0.00 | 38 | 1015.9 |
| 20260902182957 | 36 | 212 | 3.2 | 4.8 | 0.00 | 0.00 | 0.00 | 39 | 1015.9 |
| 20260902182452 | 36 | 148 | 9.7 | 12.9 | 0.00 | 0.00 | 0.00 | 40 | 1016.4 |
| 20260902181948 | 36 | 99 | 9.7 | 12.9 | 0.00 | 0.00 | 0.00 | 40 | 1016.2 |
| 20260902181444 | 36 | 163 | 8.0 | 11.3 | 0.00 | 0.00 | 0.00 | 39 | 1016.3 |
| 20260902180938 | 37 | 206 | 9.7 | 11.3 | 0.00 | 0.00 | 0.00 | 39 | 1016.4 |
| 20260902180434 | 37 | 280 | 3.2 | 4.8 | 0.00 | 0.00 | 0.00 | 39 | 1016.5 |
| 20260902175930 | 37 | 159 | 4.8 | 6.4 | 0.00 | 0.00 | 0.00 | 38 | 1016.5 |
| 20260902175424 | 37 | 243 | 4.8 | 6.4 | 0.00 | 0.00 | 0.00 | 38 | 1016.7 |
| 20260902174920 | 36 | 278 | 4.8 | 6.4 | 0.00 | 0.00 | 0.00 | 40 | 1016.6 |
| 20260902174417 | 36 | 231 | 4.8 | 6.4 | 0.00 | 0.00 | 0.00 | 39 | 1016.8 |
| 20260902173912 | 36 | 302 | 3.2 | 4.8 | 0.00 | 0.00 | 0.00 | 40 | 1016.8 |
| 20260902173411 | 35 | 188 | 4.8 | 6.4 | 0.00 | 0.00 | 0.00 | 42 | 1017.0 |
| 20260902172906 | 35 | 238 | 6.4 | 8.0 | 0.00 | 0.00 | 0.00 | 42 | 1017.1 |
| 20260902172406 | 36 | 205 | 6.4 | 6.4 | 0.00 | 0.00 | 0.00 | 42 | 1017.1 |
| 20260902171901 | 36 | 211 | 8.0 | 8.0 | 0.00 | 0.00 | 0.00 | 42 | 1017.1 |
| 20260902171356 | 35 | 243 | 3.2 | 4.8 | 0.00 | 0.00 | 0.00 | 44 | 1017.3 |
| 20260902170852 | 35 | 199 | 1.6 | 1.6 | 0.00 | 0.00 | 0.00 | 44 | 1017.6 |
| 20260902170347 | 35 | 331 | 3.2 | 4.8 | 0.00 | 0.00 | 0.00 | 43 | 1017.3 |
| 20260902165843 | 35 | 205 | 3.2 | 4.8 | 0.00 | 0.00 | 0.00 | 44 | 1017.4 |
| 20260902165342 | 35 | 203 | 6.4 | 8.0 | 0.00 | 0.00 | 0.00 | 44 | 1017.6 |
| 20260902164842 | 35 | 258 | 1.6 | 1.6 | 0.00 | 0.00 | 0.00 | 44 | 1017.6 |
| 20260902164337 | 35 | 189 | 11.3 | 12.9 | 0.00 | 0.00 | 0.00 | 44 | 1017.6 |
| 20260902163836 | 35 | 235 | 3.2 | 4.8 | 0.00 | 0.00 | 0.00 | 46 | 1017.8 |
| 20260902163331 | 34 | 262 | 1.6 | 1.6 | 0.00 | 0.00 | 0.00 | 47 | 1017.7 |
| 20260902162830 | 33 | 182 | 6.4 | 8.0 | 0.00 | 0.00 | 0.00 | 48 | 1017.7 |
| 20260902162325 | 33 | 129 | 3.2 | 6.4 | 0.00 | 0.00 | 0.00 | 49 | 1017.8 |
| 20260902161824 | 33 | 197 | 3.2 | 4.8 | 0.00 | 0.00 | 0.00 | 49 | 1018.0 |
| 20260902161320 | 33 | 170 | 11.3 | 12.9 | 0.00 | 0.00 | 0.00 | 50 | 1017.9 |
| 20260902160816 | 33 | 234 | 9.7 | 12.9 | 0.00 | 0.00 | 0.00 | 48 | 1017.9 |
| 20260902160311 | 33 | 236 | 4.8 | 6.4 | 0.00 | 0.00 | 0.00 | 49 | 1017.9 |
| 20260902155809 | 32 | 111 | 8.0 | 11.3 | 0.00 | 0.00 | 0.00 | 51 | 1017.9 |
| 20260902155308 | 32 | 250 | 8.0 | 8.0 | 0.00 | 0.00 | 0.00 | 52 | 1017.9 |
| 20260902154803 | 32 | 201 | 12.9 | 12.9 | 0.00 | 0.00 | 0.00 | 53 | 1017.9 |
| 20260902154259 | 32 | 207 | 11.3 | 17.7 | 0.00 | 0.00 | 0.00 | 53 | 1017.9 |
| 20260902153758 | 32 | 225 | 9.7 | 12.9 | 0.00 | 0.00 | 0.00 | 52 | 1018.1 |
| 20260902153252 | 32 | 138 | 6.4 | 8.0 | 0.00 | 0.00 | 0.00 | 54 | 1017.8 |
| 20260902152748 | 32 | 180 | 3.2 | 8.0 | 0.00 | 0.00 | 0.00 | 54 | 1018.0 |
| 20260902152245 | 31 | 192 | 4.8 | 6.4 | 0.00 | 0.00 | 0.00 | 56 | 1018.2 |
| 20260902151744 | 30 | 280 | 1.6 | 1.6 | 0.00 | 0.00 | 0.00 | 59 | 1018.0 |
| 20260902151240 | 30 | 178 | 6.4 | 6.4 | 0.00 | 0.00 | 0.00 | 59 | 1018.2 |
| 20260902150734 | 31 | 179 | 3.2 | 4.8 | 0.00 | 0.00 | 0.00 | 59 | 1018.0 |
| 20260902150231 | 31 | 257 | 0.0 | 1.6 | 0.00 | 0.00 | 0.00 | 58 | 1017.9 |
| 20260902145724 | 31 | 257 | 3.2 | 4.8 | 0.00 | 0.00 | 0.00 | 58 | 1017.9 |
| 20260902145219 | 30 | 286 | 4.8 | 6.4 | 0.00 | 0.00 | 0.00 | 61 | 1018.0 |
| 20260902144715 | 30 | 209 | 3.2 | 4.8 | 0.00 | 0.00 | 0.00 | 62 | 1017.9 |
| 20260902144210 | 29 | 240 | 4.8 | 6.4 | 0.00 | 0.00 | 0.00 | 63 | 1018.0 |
| 20260902143706 | 28 | 170 | 4.8 | 6.4 | 0.00 | 0.00 | 0.00 | 64 | 1018.1 |
| 20260902143201 | 28 | 123 | 6.4 | 6.4 | 0.00 | 0.00 | 0.00 | 65 | 1018.1 |
| 20260902142656 | 28 | 208 | 3.2 | 4.8 | 0.00 | 0.00 | 0.00 | 68 | 1018.1 |
| 20260902142152 | 28 | 190 | 3.2 | 4.8 | 0.00 | 0.00 | 0.00 | 69 | 1018.2 |
| 20260902141651 | 28 | 205 | 0.0 | 0.0 | 0.00 | 0.00 | 0.00 | 68 | 1018.1 |
| 20260902141147 | 27 | 229 | 0.0 | 0.0 | 0.00 | 0.00 | 0.00 | 69 | 1018.0 |
| 20260902140643 | 27 | 228 | 0.0 | 0.0 | 0.00 | 0.00 | 0.00 | 68 | 1018.1 |
| 20260902140142 | 27 | 231 | 0.0 | 0.0 | 0.00 | 0.00 | 0.00 | 70 | 1018.2 |
| 20260902135642 | 27 | 258 | 0.0 | 0.0 | 0.00 | 0.00 | 0.00 | 71 | 1018.2 |
| 20260902135137 | 26 | 284 | 0.0 | 0.0 | 0.00 | 0.00 | 0.00 | 76 | 1018.1 |
| 20260902134633 | 26 | 278 | 0.0 | 0.0 | 0.00 | 0.00 | 0.00 | 77 | 1018.0 |
| 20260902134132 | 25 | 258 | 0.0 | 0.0 | 0.00 | 0.00 | 0.00 | 78 | 1018.0 |
| 20260902133627 | 25 | 231 | 0.0 | 0.0 | 0.00 | 0.00 | 0.00 | 79 | 1017.8 |
| 20260902133122 | 25 | 253 | 0.0 | 0.0 | 0.00 | 0.00 | 0.00 | 81 | 1017.9 |
| 20260902132617 | 25 | 215 | 0.0 | 0.0 | 0.00 | 0.00 | 0.00 | 81 | 1018.0 |
| 20260902132112 | 24 | 256 | 0.0 | 0.0 | 0.00 | 0.00 | 0.00 | 81 | 1018.0 |
| 20260902131608 | 24 | 256 | 0.0 | 0.0 | 0.00 | 0.00 | 0.00 | 82 | 1018.0 |
| 20260902131103 | 24 | 257 | 0.0 | 0.0 | 0.00 | 0.00 | 0.00 | 82 | 1018.0 |
| 20260902130559 | 23 | 255 | 0.0 | 0.0 | 0.00 | 0.00 | 0.00 | 82 | 1017.9 |
| 20260902130054 | 23 | 278 | 0.0 | 0.0 | 0.00 | 0.00 | 0.00 | 83 | 1018.0 |
| 20260902125550 | 23 | 256 | 0.0 | 0.0 | 0.00 | 0.00 | 0.00 | 84 | 1017.8 |
| 20260902125045 | 23 | 211 | 0.0 | 0.0 | 0.00 | 0.00 | 0.00 | 83 | 1017.7 |
| 20260902124542 | 23 | 270 | 0.0 | 0.0 | 0.00 | 0.00 | 0.00 | 85 | 1017.7 |
| 20260902124042 | 23 | 271 | 0.0 | 0.0 | 0.00 | 0.00 | 0.00 | 88 | 1017.8 |
| 20260902123538 | 22 | 280 | 0.0 | 0.0 | 0.00 | 0.00 | 0.00 | 90 | 1017.6 |
| 20260902123038 | 22 | 281 | 0.0 | 0.0 | 0.00 | 0.00 | 0.00 | 90 | 1017.7 |
| 20260902122532 | 21 | 269 | 0.0 | 0.0 | 0.00 | 0.00 | 0.00 | 92 | 1017.6 |
| 20260902122028 | 21 | 279 | 0.0 | 0.0 | 0.00 | 0.00 | 0.00 | 92 | 1017.5 |
| 20260902121527 | 21 | 242 | 0.0 | 0.0 | 0.00 | 0.00 | 0.00 | 92 | 1017.5 |
| 20260902121022 | 21 | 246 | 0.0 | 0.0 | 0.00 | 0.00 | 0.00 | 92 | 1017.6 |
| 20260902120519 | 21 | 278 | 0.0 | 0.0 | 0.00 | 0.00 | 0.00 | 92 | 1017.5 |
| 20260902120015 | 21 | 261 | 0.0 | 0.0 | 0.00 | 0.00 | 0.00 | 92 | 1017.5 |
| 20260902115509 | 21 | 288 | 0.0 | 0.0 | 0.00 | 0.00 | 0.00 | 92 | 1017.1 |
| 20260902115006 | 21 | 283 | 0.0 | 0.0 | 0.00 | 0.00 | 0.00 | 92 | 1017.3 |
| 20260902114501 | 21 | 274 | 0.0 | 0.0 | 0.00 | 0.00 | 0.00 | 92 | 1017.1 |
| 20260902113956 | 21 | 286 | 0.0 | 0.0 | 0.00 | 0.00 | 0.00 | 92 | 1017.2 |
| 20260902113452 | 21 | 260 | 0.0 | 0.0 | 0.00 | 0.00 | 0.00 | 92 | 1017.2 |
| 20260902112951 | 21 | 297 | 0.0 | 0.0 | 0.00 | 0.00 | 0.00 | 92 | 1017.3 |
| 20260902112447 | 21 | 271 | 0.0 | 0.0 | 0.00 | 0.00 | 0.00 | 92 | 1017.0 |
| 20260902111943 | 21 | 279 | 0.0 | 0.0 | 0.00 | 0.00 | 0.00 | 91 | 1017.2 |
| 20260902111440 | 21 | 279 | 0.0 | 0.0 | 0.00 | 0.00 | 0.00 | 91 | 1016.8 |
| 20260902110935 | 21 | 279 | 0.0 | 0.0 | 0.00 | 0.00 | 0.00 | 91 | 1017.2 |
| 20260902110431 | 21 | 269 | 0.0 | 0.0 | 0.00 | 0.00 | 0.00 | 91 | 1017.2 |
| 20260902105931 | 21 | 257 | 0.0 | 0.0 | 0.00 | 0.00 | 0.00 | 91 | 1016.7 |
| 20260902105426 | 21 | 267 | 0.0 | 0.0 | 0.00 | 0.00 | 0.00 | 91 | 1016.9 |
| 20260902104921 | 21 | 276 | 0.0 | 0.0 | 0.00 | 0.00 | 0.00 | 90 | 1016.7 |
| 20260902104417 | 21 | 280 | 0.0 | 0.0 | 0.00 | 0.00 | 0.00 | 90 | 1016.9 |
| 20260902103916 | 21 | 282 | 0.0 | 0.0 | 0.00 | 0.00 | 0.00 | 90 | 1017.0 |
| 20260902103411 | 21 | 280 | 0.0 | 0.0 | 0.00 | 0.00 | 0.00 | 90 | 1017.0 |
| 20260902102907 | 21 | 249 | 0.0 | 0.0 | 0.00 | 0.00 | 0.00 | 89 | 1016.9 |
| 20260902102404 | 21 | 249 | 0.0 | 0.0 | 0.00 | 0.00 | 0.00 | 89 | 1016.9 |
| 20260902101900 | 21 | 247 | 0.0 | 0.0 | 0.00 | 0.00 | 0.00 | 88 | 1016.8 |
| 20260902101354 | 21 | 282 | 0.0 | 0.0 | 0.00 | 0.00 | 0.00 | 88 | 1017.0 |
| 20260902100854 | 22 | 291 | 0.0 | 0.0 | 0.00 | 0.00 | 0.00 | 88 | 1016.8 |
| 20260902100353 | 22 | 280 | 0.0 | 0.0 | 0.00 | 0.00 | 0.00 | 87 | 1016.7 |
| 20260902095848 | 22 | 271 | 0.0 | 0.0 | 0.00 | 0.00 | 0.00 | 87 | 1016.8 |
| 20260902095343 | 22 | 277 | 0.0 | 0.0 | 0.00 | 0.00 | 0.00 | 86 | 1016.7 |
| 20260902094842 | 22 | 278 | 0.0 | 0.0 | 0.00 | 0.00 | 0.00 | 86 | 1016.6 |
| 20260902094339 | 22 | 241 | 0.0 | 0.0 | 0.00 | 0.00 | 0.00 | 85 | 1016.6 |
| 20260902093838 | 23 | 238 | 0.0 | 0.0 | 0.00 | 0.00 | 0.00 | 82 | 1016.7 |
| 20260902093333 | 23 | 292 | 0.0 | 0.0 | 0.00 | 0.00 | 0.00 | 82 | 1016.7 |
| 20260902092833 | 23 | 285 | 0.0 | 0.0 | 0.00 | 0.00 | 0.00 | 82 | 1016.7 |
| 20260902092329 | 22 | 297 | 0.0 | 0.0 | 0.00 | 0.00 | 0.00 | 82 | 1016.6 |
| 20260902091828 | 23 | 276 | 0.0 | 0.0 | 0.00 | 0.00 | 0.00 | 82 | 1016.4 |
| 20260902091324 | 22 | 255 | 0.0 | 0.0 | 0.00 | 0.00 | 0.00 | 84 | 1016.4 |
| 20260902090821 | 22 | 289 | 0.0 | 0.0 | 0.00 | 0.00 | 0.00 | 85 | 1016.4 |
| 20260902090320 | 22 | 242 | 0.0 | 0.0 | 0.00 | 0.00 | 0.00 | 84 | 1016.5 |
| 20260902085819 | 22 | 271 | 0.0 | 0.0 | 0.00 | 0.00 | 0.00 | 85 | 1016.3 |
| 20260902085314 | 22 | 262 | 0.0 | 0.0 | 0.00 | 0.00 | 0.00 | 87 | 1016.4 |
| 20260902084810 | 22 | 243 | 0.0 | 0.0 | 0.00 | 0.00 | 0.00 | 86 | 1016.5 |
| 20260902084307 | 22 | 276 | 0.0 | 0.0 | 0.00 | 0.00 | 0.00 | 85 | 1016.4 |
| 20260902083801 | 22 | 273 | 0.0 | 0.0 | 0.00 | 0.00 | 0.00 | 85 | 1016.4 |
| 20260902083255 | 22 | 260 | 0.0 | 0.0 | 0.00 | 0.00 | 0.00 | 84 | 1016.7 |
| 20260902082750 | 22 | 262 | 0.0 | 0.0 | 0.00 | 0.00 | 0.00 | 83 | 1016.3 |
| 20260902082247 | 22 | 285 | 0.0 | 0.0 | 0.00 | 0.00 | 0.00 | 83 | 1016.5 |
| 20260902081743 | 22 | 277 | 0.0 | 0.0 | 0.00 | 0.00 | 0.00 | 83 | 1016.2 |
| 20260902081238 | 23 | 261 | 0.0 | 0.0 | 0.00 | 0.00 | 0.00 | 82 | 1016.5 |
| 20260902080733 | 23 | 257 | 0.0 | 0.0 | 0.00 | 0.00 | 0.00 | 81 | 1016.5 |
| 20260902080231 | 23 | 271 | 0.0 | 0.0 | 0.00 | 0.00 | 0.00 | 80 | 1016.3 |
| 20260902075729 | 23 | 261 | 0.0 | 0.0 | 0.00 | 0.00 | 0.00 | 79 | 1016.4 |
| 20260902075226 | 24 | 271 | 0.0 | 0.0 | 0.00 | 0.00 | 0.00 | 76 | 1016.7 |
| 20260902074725 | 25 | 267 | 0.0 | 0.0 | 0.00 | 0.00 | 0.00 | 74 | 1016.4 |
| 20260902074221 | 25 | 254 | 0.0 | 0.0 | 0.00 | 0.00 | 0.00 | 73 | 1016.3 |
| 20260902073716 | 25 | 238 | 0.0 | 0.0 | 0.00 | 0.00 | 0.00 | 72 | 1016.3 |
| 20260902073212 | 26 | 243 | 0.0 | 0.0 | 0.00 | 0.00 | 0.00 | 70 | 1016.4 |
| 20260902072708 | 25 | 254 | 0.0 | 0.0 | 0.00 | 0.00 | 0.00 | 70 | 1016.4 |
| 20260902072204 | 26 | 258 | 0.0 | 0.0 | 0.00 | 0.00 | 0.00 | 70 | 1016.2 |
| 20260902071700 | 25 | 248 | 0.0 | 0.0 | 0.00 | 0.00 | 0.00 | 70 | 1016.4 |
| 20260902071155 | 25 | 305 | 0.0 | 0.0 | 0.00 | 0.00 | 0.00 | 70 | 1016.4 |
| 20260902070651 | 26 | 260 | 0.0 | 0.0 | 0.00 | 0.00 | 0.00 | 70 | 1016.3 |
| 20260902070151 | 26 | 242 | 0.0 | 0.0 | 0.00 | 0.00 | 0.00 | 70 | 1016.6 |
| 20260902065649 | 26 | 191 | 0.0 | 0.0 | 0.00 | 0.00 | 0.00 | 69 | 1016.6 |
| 20260902065145 | 26 | 219 | 0.0 | 0.0 | 0.00 | 0.00 | 0.00 | 69 | 1016.4 |
| 20260902064641 | 26 | 115 | 0.0 | 0.0 | 0.00 | 0.00 | 0.00 | 69 | 1016.5 |
| 20260902064136 | 26 | 234 | 0.0 | 0.0 | 0.00 | 0.00 | 0.00 | 70 | 1016.4 |
| 20260902063632 | 25 | 265 | 0.0 | 0.0 | 0.00 | 0.00 | 0.00 | 70 | 1016.3 |
| 20260902063126 | 25 | 188 | 0.0 | 0.0 | 0.00 | 0.00 | 0.00 | 70 | 1016.4 |
| 20260902062625 | 26 | 251 | 0.0 | 0.0 | 0.00 | 0.00 | 0.00 | 69 | 1016.5 |
| 20260902062120 | 26 | 236 | 0.0 | 0.0 | 0.00 | 0.00 | 0.00 | 68 | 1016.3 |
| 20260902061620 | 25 | 228 | 0.0 | 0.0 | 0.00 | 0.00 | 0.00 | 71 | 1016.5 |
| 20260902061116 | 25 | 277 | 0.0 | 0.0 | 0.00 | 0.00 | 0.00 | 74 | 1016.4 |
| 20260902060612 | 25 | 208 | 0.0 | 0.0 | 0.00 | 0.00 | 0.00 | 72 | 1016.3 |
| 20260902060108 | 25 | 141 | 0.0 | 0.0 | 0.00 | 0.00 | 0.00 | 73 | 1016.4 |
| 20260902055604 | 24 | 224 | 0.0 | 0.0 | 0.00 | 0.00 | 0.00 | 74 | 1016.1 |
| 20260902055059 | 24 | 240 | 0.0 | 0.0 | 0.00 | 0.00 | 0.00 | 74 | 1016.3 |
| 20260902054554 | 24 | 290 | 0.0 | 0.0 | 0.00 | 0.00 | 0.00 | 74 | 1016.1 |
| 20260902054050 | 23 | 235 | 0.0 | 0.0 | 0.00 | 0.00 | 0.00 | 75 | 1016.5 |
| 20260902053545 | 23 | 267 | 0.0 | 0.0 | 0.00 | 0.00 | 0.00 | 78 | 1016.4 |
| 20260902053044 | 23 | 256 | 0.0 | 0.0 | 0.00 | 0.00 | 0.00 | 79 | 1016.2 |
| 20260902052539 | 22 | 263 | 0.0 | 0.0 | 0.00 | 0.00 | 0.00 | 82 | 1016.4 |
| 20260902052035 | 22 | 282 | 0.0 | 0.0 | 0.00 | 0.00 | 0.00 | 83 | 1016.2 |
| 20260902051534 | 22 | 246 | 0.0 | 0.0 | 0.00 | 0.00 | 0.00 | 83 | 1016.3 |
| 20260902051033 | 22 | 248 | 0.0 | 0.0 | 0.00 | 0.00 | 0.00 | 84 | 1016.2 |
| 20260902050528 | 22 | 264 | 0.0 | 0.0 | 0.00 | 0.00 | 0.00 | 84 | 1016.4 |
| 20260902050024 | 22 | 272 | 0.0 | 0.0 | 0.00 | 0.00 | 0.00 | 84 | 1016.3 |
| 20260902045519 | 22 | 265 | 0.0 | 0.0 | 0.00 | 0.00 | 0.00 | 83 | 1016.3 |
| 20260902045015 | 22 | 268 | 0.0 | 0.0 | 0.00 | 0.00 | 0.00 | 83 | 1016.3 |
| 20260902044509 | 22 | 276 | 0.0 | 0.0 | 0.00 | 0.00 | 0.00 | 83 | 1016.1 |
| 20260902044005 | 22 | 273 | 0.0 | 0.0 | 0.00 | 0.00 | 0.00 | 82 | 1016.2 |
| 20260902043500 | 22 | 273 | 0.0 | 0.0 | 0.00 | 0.00 | 0.00 | 82 | 1015.9 |
| 20260902042955 | 22 | 260 | 0.0 | 0.0 | 0.00 | 0.00 | 0.00 | 82 | 1016.1 |
| 20260902042455 | 22 | 243 | 0.0 | 0.0 | 0.00 | 0.00 | 0.00 | 82 | 1015.9 |
| 20260902041950 | 22 | 251 | 0.0 | 0.0 | 0.00 | 0.00 | 0.00 | 81 | 1016.2 |
| 20260902041445 | 22 | 268 | 0.0 | 0.0 | 0.00 | 0.00 | 0.00 | 82 | 1016.2 |
| 20260902040945 | 22 | 265 | 0.0 | 0.0 | 0.00 | 0.00 | 0.00 | 82 | 1016.1 |
| 20260902040439 | 23 | 275 | 0.0 | 0.0 | 0.00 | 0.00 | 0.00 | 81 | 1015.9 |
| 20260902035938 | 22 | 279 | 0.0 | 0.0 | 0.00 | 0.00 | 0.00 | 81 | 1016.1 |
| 20260902035433 | 22 | 264 | 0.0 | 0.0 | 0.00 | 0.00 | 0.00 | 81 | 1015.8 |
| 20260902034933 | 23 | 268 | 0.0 | 0.0 | 0.00 | 0.00 | 0.00 | 81 | 1016.1 |
| 20260902034427 | 23 | 268 | 0.0 | 0.0 | 0.00 | 0.00 | 0.00 | 81 | 1016.2 |
| 20260902033927 | 23 | 268 | 0.0 | 0.0 | 0.00 | 0.00 | 0.00 | 81 | 1015.8 |
| 20260902033426 | 23 | 272 | 0.0 | 0.0 | 0.00 | 0.00 | 0.00 | 81 | 1016.2 |
| 20260902032926 | 23 | 274 | 0.0 | 0.0 | 0.00 | 0.00 | 0.00 | 81 | 1015.8 |
| 20260902032426 | 23 | 290 | 0.0 | 0.0 | 0.00 | 0.00 | 0.00 | 81 | 1015.9 |
| 20260902031920 | 23 | 269 | 0.0 | 0.0 | 0.00 | 0.00 | 0.00 | 80 | 1015.8 |
| 20260902031416 | 23 | 270 | 0.0 | 0.0 | 0.00 | 0.00 | 0.00 | 80 | 1015.7 |
| 20260902030912 | 23 | 264 | 0.0 | 0.0 | 0.00 | 0.00 | 0.00 | 80 | 1015.6 |
| 20260902030406 | 23 | 278 | 0.0 | 0.0 | 0.00 | 0.00 | 0.00 | 80 | 1015.6 |
| 20260902025905 | 23 | 271 | 0.0 | 0.0 | 0.00 | 0.00 | 0.00 | 79 | 1015.5 |
| 20260902025402 | 23 | 263 | 0.0 | 0.0 | 0.00 | 0.00 | 0.00 | 78 | 1015.5 |
| 20260902024901 | 23 | 268 | 0.0 | 0.0 | 0.00 | 0.00 | 0.00 | 78 | 1015.4 |
| 20260902024357 | 23 | 274 | 0.0 | 0.0 | 0.00 | 0.00 | 0.00 | 78 | 1015.2 |
| 20260902023852 | 24 | 281 | 0.0 | 0.0 | 0.00 | 0.00 | 0.00 | 78 | 1015.1 |
| 20260902023348 | 24 | 277 | 0.0 | 0.0 | 0.00 | 0.00 | 0.00 | 78 | 1015.2 |
| 20260902022847 | 24 | 264 | 0.0 | 0.0 | 0.00 | 0.00 | 0.00 | 77 | 1015.2 |
| 20260902022342 | 24 | 277 | 0.0 | 0.0 | 0.00 | 0.00 | 0.00 | 76 | 1014.9 |
| 20260902021838 | 24 | 269 | 0.0 | 0.0 | 0.00 | 0.00 | 0.00 | 77 | 1015.0 |
| 20260902021332 | 25 | 261 | 0.0 | 0.0 | 0.00 | 0.00 | 0.00 | 76 | 1014.9 |
| 20260902020828 | 25 | 272 | 0.0 | 0.0 | 0.00 | 0.00 | 0.00 | 75 | 1014.9 |
| 20260902020324 | 25 | 266 | 0.0 | 0.0 | 0.00 | 0.00 | 0.00 | 75 | 1014.6 |
| 20260902015820 | 25 | 272 | 0.0 | 0.0 | 0.00 | 0.00 | 0.00 | 74 | 1014.5 |
| 20260902015315 | 25 | 273 | 0.0 | 0.0 | 0.00 | 0.00 | 0.00 | 74 | 1014.6 |
| 20260902014811 | 25 | 273 | 0.0 | 0.0 | 0.00 | 0.00 | 0.00 | 73 | 1014.5 |
| 20260902014308 | 26 | 232 | 0.0 | 0.0 | 0.00 | 0.00 | 0.00 | 72 | 1014.3 |
| 20260902013806 | 26 | 271 | 0.0 | 0.0 | 0.00 | 0.00 | 0.00 | 72 | 1014.4 |
| 20260902013301 | 26 | 266 | 0.0 | 0.0 | 0.00 | 0.00 | 0.00 | 71 | 1014.3 |
| 20260902012757 | 26 | 268 | 0.0 | 0.0 | 0.00 | 0.00 | 0.00 | 70 | 1014.2 |
| 20260902012253 | 26 | 279 | 0.0 | 0.0 | 0.00 | 0.00 | 0.00 | 70 | 1014.2 |